| time (UTC) | temp C | wind direction | speed KPH | gust KPH | rain 1hr cm | rain 24hr cm | rain mn cm | humidity % | barometer mb |
| 20260504210903 | 21 | 8 | 6.4 | 19.3 | 0.00 | 0.00 | 0.00 | 31 | 1017.9 |
| 20260504210003 | 21 | 7 | 8.0 | 20.9 | 0.00 | 0.00 | 0.00 | 32 | 1017.9 |
| 20260504205403 | 21 | 4 | 8.0 | 30.6 | 0.00 | 0.00 | 0.00 | 32 | 1017.9 |
| 20260504204524 | 21 | 9 | 9.7 | 30.6 | 0.00 | 0.00 | 0.00 | 32 | 1017.9 |
| 20260504203624 | 22 | 328 | 9.7 | 38.6 | 0.00 | 0.00 | 0.00 | 31 | 1017.9 |
| 20260504202703 | 23 | 334 | 4.8 | 16.1 | 0.00 | 0.00 | 0.00 | 26 | 1017.9 |
| 20260504201803 | 22 | 28 | 3.2 | 12.9 | 0.00 | 0.00 | 0.00 | 27 | 1017.9 |
| 20260504200903 | 21 | 90 | 3.2 | 12.9 | 0.00 | 0.00 | 0.00 | 32 | 1017.9 |
| 20260504200024 | 21 | 178 | 3.2 | 12.9 | 0.00 | 0.00 | 0.00 | 32 | 1017.9 |
| 20260504195403 | 21 | 68 | 3.2 | 14.5 | 0.00 | 0.00 | 0.00 | 32 | 1017.9 |
| 20260504194503 | 20 | 68 | 3.2 | 9.7 | 0.00 | 0.00 | 0.00 | 34 | 1017.9 |
| 20260504193603 | 20 | 67 | 1.6 | 8.0 | 0.00 | 0.00 | 0.00 | 36 | 1017.9 |
| 20260504192703 | 20 | 141 | 1.6 | 9.7 | 0.00 | 0.00 | 0.00 | 37 | 1017.9 |
| 20260504191824 | 20 | 62 | 0.0 | 8.0 | 0.00 | 0.00 | 0.00 | 37 | 1017.9 |
| 20260504190903 | 20 | 40 | 3.2 | 16.1 | 0.00 | 0.00 | 0.00 | 38 | 1017.9 |
| 20260504190003 | 20 | 58 | 1.6 | 11.3 | 0.00 | 0.00 | 0.00 | 37 | 1017.9 |
| 20260504185403 | 20 | 57 | 1.6 | 8.0 | 0.00 | 0.00 | 0.00 | 36 | 1017.9 |
| 20260504184503 | 20 | 66 | 4.8 | 9.7 | 0.00 | 0.00 | 0.00 | 37 | 1017.9 |
| 20260504183603 | 20 | 61 | 4.8 | 14.5 | 0.00 | 0.00 | 0.00 | 36 | 1017.9 |
| 20260504182703 | 20 | 4 | 1.6 | 6.4 | 0.00 | 0.00 | 0.00 | 37 | 1017.9 |
| 20260504181803 | 20 | 26 | 4.8 | 9.7 | 0.00 | 0.00 | 0.00 | 37 | 1017.9 |
| 20260504180924 | 19 | 7 | 1.6 | 8.0 | 0.00 | 0.00 | 0.00 | 38 | 1017.9 |
| 20260504180003 | 20 | 5 | 3.2 | 12.9 | 0.00 | 0.00 | 0.00 | 36 | 1017.9 |
| 20260504175403 | 20 | 22 | 4.8 | 19.3 | 0.00 | 0.00 | 0.00 | 39 | 1017.9 |
| 20260504174503 | 19 | 65 | 6.4 | 16.1 | 0.00 | 0.00 | 0.00 | 42 | 1017.9 |
| 20260504173624 | 18 | 61 | 3.2 | 14.5 | 0.00 | 0.00 | 0.00 | 43 | 1017.9 |
| 20260504172703 | 17 | 60 | 0.0 | 3.2 | 0.00 | 0.00 | 0.00 | 45 | 1017.9 |
| 20260504171803 | 17 | 0 | 0.0 | 1.6 | 0.00 | 0.00 | 0.00 | 46 | 1017.9 |
| 20260504170903 | 17 | 0 | 0.0 | 1.6 | 0.00 | 0.00 | 0.00 | 48 | 1017.9 |
| 20260504150903 | 18 | 64 | 3.2 | 12.9 | 0.00 | 0.00 | 0.00 | 40 | 1017.9 |
| 20260504140903 | 15 | 173 | 0.0 | 9.7 | 0.00 | 0.00 | 0.00 | 49 | 1017.9 |
| 20260504050003 | 19 | 73 | 0.0 | 12.9 | 0.00 | 0.00 | 0.00 | 20 | 1017.9 |
| 20260504045403 | 20 | 238 | 3.2 | 14.5 | 0.00 | 0.00 | 0.00 | 20 | 1017.9 |
| 20260504044504 | 20 | 245 | 3.2 | 14.5 | 0.00 | 0.00 | 0.00 | 18 | 1017.9 |
| 20260504043624 | 20 | 242 | 4.8 | 16.1 | 0.00 | 0.00 | 0.00 | 18 | 1017.9 |
| 20260504042703 | 20 | 234 | 3.2 | 12.9 | 0.00 | 0.00 | 0.00 | 18 | 1017.9 |
| 20260504041803 | 19 | 228 | 0.0 | 6.4 | 0.00 | 0.00 | 0.00 | 18 | 1017.9 |
| 20260504040903 | 20 | 233 | 1.6 | 11.3 | 0.00 | 0.00 | 0.00 | 18 | 1017.9 |
| 20260504040003 | 20 | 253 | 4.8 | 20.9 | 0.00 | 0.00 | 0.00 | 18 | 1017.9 |
| 20260504035403 | 20 | 252 | 4.8 | 20.9 | 0.00 | 0.00 | 0.00 | 18 | 1017.9 |
| 20260504034524 | 20 | 227 | 4.8 | 16.1 | 0.00 | 0.00 | 0.00 | 17 | 1017.9 |
| 20260504033624 | 20 | 219 | 4.8 | 14.5 | 0.00 | 0.00 | 0.00 | 17 | 1017.9 |
| 20260504032703 | 20 | 208 | 6.4 | 17.7 | 0.00 | 0.00 | 0.00 | 17 | 1017.9 |
| 20260504031803 | 20 | 200 | 6.4 | 17.7 | 0.00 | 0.00 | 0.00 | 17 | 1017.9 |
| 20260504030903 | 20 | 201 | 6.4 | 17.7 | 0.00 | 0.00 | 0.00 | 17 | 1017.9 |
| 20260504030003 | 20 | 247 | 0.0 | 8.0 | 0.00 | 0.00 | 0.00 | 16 | 1017.9 |
| 20260504025424 | 20 | 223 | 1.6 | 8.0 | 0.00 | 0.00 | 0.00 | 16 | 1017.9 |
| 20260504024503 | 20 | 80 | 0.0 | 4.8 | 0.00 | 0.00 | 0.00 | 16 | 1017.9 |
| 20260504023603 | 20 | 66 | 1.6 | 6.4 | 0.00 | 0.00 | 0.00 | 15 | 1017.9 |
| 20260504022703 | 20 | 49 | 0.0 | 6.4 | 0.00 | 0.00 | 0.00 | 15 | 1017.9 |
| 20260504021803 | 20 | 0 | 0.0 | 0.0 | 0.00 | 0.00 | 0.00 | 15 | 1017.9 |
| 20260504020903 | 21 | 0 | 0.0 | 0.0 | 0.00 | 0.00 | 0.00 | 16 | 1017.9 |
| 20260504020003 | 22 | 0 | 0.0 | 0.0 | 0.00 | 0.00 | 0.00 | 13 | 1017.9 |
| 20260504015424 | 22 | 0 | 0.0 | 0.0 | 0.00 | 0.00 | 0.00 | 13 | 1017.9 |
| 20260504014503 | 22 | 28 | 0.0 | 4.8 | 0.00 | 0.00 | 0.00 | 12 | 1017.9 |
| 20260504013624 | 23 | 17 | 0.0 | 6.4 | 0.00 | 0.00 | 0.00 | 12 | 1017.9 |
| 20260504012703 | 23 | 9 | 0.0 | 6.4 | 0.00 | 0.00 | 0.00 | 12 | 1017.9 |
| 20260504011803 | 23 | 310 | 0.0 | 11.3 | 0.00 | 0.00 | 0.00 | 11 | 1017.9 |
| 20260504010903 | 24 | 0 | 0.0 | 0.0 | 0.00 | 0.00 | 0.00 | 11 | 1017.9 |
| 20260504010024 | 24 | 296 | 0.0 | 12.9 | 0.00 | 0.00 | 0.00 | 11 | 1017.9 |
| 20260504005403 | 24 | 311 | 1.6 | 8.0 | 0.00 | 0.00 | 0.00 | 11 | 1017.9 |
| 20260504004524 | 24 | 22 | 1.6 | 11.3 | 0.00 | 0.00 | 0.00 | 10 | 1017.9 |
| 20260504003603 | 25 | 30 | 3.2 | 19.3 | 0.00 | 0.00 | 0.00 | 11 | 1017.9 |
| 20260504002703 | 25 | 194 | 3.2 | 11.3 | 0.00 | 0.00 | 0.00 | 10 | 1017.9 |
| 20260504001803 | 25 | 193 | 3.2 | 14.5 | 0.00 | 0.00 | 0.00 | 10 | 1017.9 |
| 20260504000903 | 25 | 193 | 3.2 | 14.5 | 0.00 | 0.00 | 0.00 | 9 | 1017.9 |
| 20260504000003 | 26 | 288 | 1.6 | 20.9 | 0.00 | 0.00 | 0.00 | 8 | 1017.9 |
| 20260503235424 | 26 | 309 | 3.2 | 20.9 | 0.00 | 0.00 | 0.00 | 9 | 1017.9 |
| 20260503234503 | 26 | 295 | 1.6 | 16.1 | 0.00 | 0.00 | 0.00 | 9 | 1017.9 |
| 20260503233603 | 26 | 247 | 1.6 | 16.1 | 0.00 | 0.00 | 0.00 | 9 | 1017.9 |
| 20260503232703 | 26 | 332 | 1.6 | 17.7 | 0.00 | 0.00 | 0.00 | 9 | 1017.9 |
| 20260503231824 | 26 | 343 | 1.6 | 11.3 | 0.00 | 0.00 | 0.00 | 9 | 1017.9 |
| 20260503230903 | 25 | 355 | 1.6 | 16.1 | 0.00 | 0.00 | 0.00 | 10 | 1017.9 |
| 20260503230003 | 25 | 306 | 0.0 | 12.9 | 0.00 | 0.00 | 0.00 | 10 | 1017.9 |
| 20260503225403 | 25 | 232 | 1.6 | 17.7 | 0.00 | 0.00 | 0.00 | 9 | 1017.9 |
| 20260503224524 | 25 | 241 | 1.6 | 17.7 | 0.00 | 0.00 | 0.00 | 9 | 1017.9 |
| 20260503223603 | 25 | 199 | 1.6 | 19.3 | 0.00 | 0.00 | 0.00 | 9 | 1017.9 |
| 20260503222703 | 26 | 27 | 0.0 | 8.0 | 0.00 | 0.00 | 0.00 | 9 | 1017.9 |
| 20260503221824 | 26 | 234 | 3.2 | 16.1 | 0.00 | 0.00 | 0.00 | 9 | 1017.9 |
| 20260503220903 | 27 | 285 | 1.6 | 9.7 | 0.00 | 0.00 | 0.00 | 8 | 1017.9 |
| 20260503220003 | 27 | 302 | 4.8 | 29.0 | 0.00 | 0.00 | 0.00 | 8 | 1017.9 |
| 20260503215403 | 27 | 306 | 1.6 | 19.3 | 0.00 | 0.00 | 0.00 | 8 | 1017.9 |
| 20260503214503 | 27 | 344 | 1.6 | 14.5 | 0.00 | 0.00 | 0.00 | 8 | 1017.9 |
| 20260503213603 | 26 | 345 | 3.2 | 16.1 | 0.00 | 0.00 | 0.00 | 8 | 1017.9 |
| 20260503212703 | 26 | 267 | 3.2 | 17.7 | 0.00 | 0.00 | 0.00 | 8 | 1017.9 |
| 20260503211824 | 26 | 286 | 6.4 | 25.7 | 0.00 | 0.00 | 0.00 | 8 | 1017.9 |